Perseus-M 2

operational
NORAD ID: 40037 Int'l Des: 2014-033 Owner: CANOP Country: US
LEOCIRCULARRETROGRADESSO

About Perseus-M 2

Description loading...

Live Position

Loading 3D Globe...

Upcoming Passes

Altitude History

Altitude vs Time

uPlot chart will show altitude changes over time

Two-Line Element Set

1 40037U 14033AD 26102.95711181 .00001650 00000-0 15507-3 0 9992
2 40037 97.9913 52.2026 0012445 148.0853 212.1124 14.95316590641036
Epoch: Apr 12, 2026 • Age: 6 hours

Current Status

Altitude 612.8 km
Velocity 7.55 km/s
Sub-Earth Point -78.40°S, 86.09°W
Launch Date Jun 19, 2014
Age 11.8 years
Type other

Technical Details

Classification Payload
Mass 10.00 kg
Dry Mass 10.00 kg
Total Mass 10.00 kg
Length 0.30 m
Diameter 0.20 m
Span 0.30 m
Shape Box
Manufacturer CANOP
Bus Type Cubesat 6U
Phase Status In Orbit
Owner/State CANOP/US

Large Constellations

Loading constellations...